COSMOS 1244

导读 | 豆包AI

COSMOS 1244(宇宙1244)是苏联(独联体CIS)于1981年2月12日发射的人造卫星,属于大名鼎鼎的宇宙号卫星系列。这是世界上规模最大的卫星家族,绝大多数为军用卫星,统一命名的方式可以隐藏卫星真实任务。作为1980年代初入轨的军用卫星,COSMOS 1244现已完成任务,大概率已退役,目前可能作为空间碎片在轨运行,是冷战时期航天活动的历史见证。

基本信息
目录编号:
12297
目录名称:
COSMOS 1244
国际标识:
1981-013A
轨道中心:
EARTH
卫星名称:
COSMOS 1244
卫星全名:
--
卫星状态:
在轨 (已飞行16487 天)
发射日期:
1981-02-12 UTC
国别 :
俄罗斯(独联体) (CIS)
星等 :
--
轨道信息
数据来源 国际轨道数据 AOE轨道数据
星历时间 2026-04-04T00:00:28+0800
8小时前
查看轨道信息
2026-03-31T22:00:00+0800
3天前
查看轨道信息
半长轴 7358.953km 7358.951km
偏心率 0.0031289 0.0031424
轨道倾角 82.952° 82.952°
近地点辐角 41.373° 49.746°
升交点赤经 140.820° 143.102°
平近点角 80.057° 293.499°
近地点 957.79km 957.689km
远地点 1003.842km 1003.939km
周期 104.709分钟 104.709分钟
每日圈数 13.752409 13.752414
详细信息
使用方式:
暂无
2D轨道图
3D轨道图
轨道高度分析图
轨道倾角分析图
轨道综合分析图
查看轨道综合分析图